Tracking 26258 objects as of 3-Oct-2022
HD Live streaming from Space Station
objects crossing your sky now

STARLINK-4723

Track STARLINK-4723 now!
10-day predictions
STARLINK-4723 is classified as:


NORAD ID: 53797
Int'l Code: 2022-111AA
Perigee: 356.0 km
Apogee: 357.7 km
Inclination: 53.2 °
Period: 91.5 minutes
Semi major axis: 6727 km
RCS: Unknown
Launch date: September 11, 2022
Source: United States (US)
Launch site: AIR FORCE EASTERN TEST RANGE (AFETR)
aabbcc
Your satellite tracking list
Your tracking list is empty




NASA's NSSDC Master Catalog

Two Line Element Set (TLE):
1 53797U 22111AA  22275.91667824  .00058812  00000-0  42044-3 0  9990
2 53797  53.2167 158.9172 0001280 101.3554  61.8904 15.73204646  1300
Source of the keplerian elements: AFSPC